OPS 4682 DEB, 38430

Orbit data source: Space-Track

OPS 4682 DEB, 38430 is space debris in LEO originally from a launch on Sat, 03 Apr 1965 UTC launched from the Air Force Western Test Range (AFWTR). Debris objects in space refer to the collection of defunct objects orbiting the Earth. Examples of debris include non-operational satellites, rocket bodies, and fragments generated from explosions, collisions, or faulty payload assembly.

Loading next visibility...
Identifier
38430, 1965-027EK
Orbit
LEO
Country
Flag of USUS
Related business
Manufacturer
Unknown
Mission
Spacecraft
Bus & Motor
Unknown
Mass
Unknown
Launch date (UTC)
1965-04-03 (61 years ago)
Launch vehicle
Unknown
Launch site
Air Force Western Test Range (AFWTR)
Object type
Payload
Rocket body
Debris
Shape & HBR
Unknown shape, 0.1 m
Radar Cross Section
Medium (>0.1 m² and <1 m²)

Expand to show TLE details & history
Last TLE update: 2 weeks ago

TLE from 2 weeks ago
0 OPS 4682 DEB
1 38430U 65027EK  26148.40148811  .00001396  00000-0  45735-2 0  9991
2 38430  90.2680  22.0923 0055002  36.9358 323.5532 13.00160040661123
Epoch: 2026-05-28T09:38Z
TLE epoch observation values (Epoch: 2026-05-28T09:38:08.572Z)
Latitude
-0.00002°
Longitude
-8.39016°
Altitude
1,230.619 km
Speed
7.255 km/s
True Right ascension
01h 28m 22s
True Declination
0° 00' 00"
Sunlit
Object was in daylight at epoch
Visualization orbit readout
Latitude
Unknown
Longitude
Unknown
Altitude
Unknown
Speed
Unknown
Apparent Right ascension
Unknown
Apparent Declination
Unknown
Sunlit
N/A
Visualization observer readout
Local Sidereal Time
14:21:30
Azimuth
Unknown
Elevation
Unknown
Doppler factor
Unknown
Orbital elements
Apogee altitude
1,300.59 km
Perigee altitude
1,216.583 km
Semi-major axis
7,636.723 km
Eccentricity
0.0055
Inclination
90.268°
RAAN
22.0923°
Arg. of periapsis
36.9358°
True anomaly
323.17669°
Mean anomaly
323.5532°
Eccentric anomaly
323.36515°
Mean motion
3.25224 °/min
Orbital period
110.69 mins
BSTAR
0.0045735
Loading maneuver chart data...
Computing Atmospheric mass density...
Loading historical data...
Loading historical data...
Loading historical data...
Loading historical data...
Loading historical data...
Loading historical data...
Loading historical data...

Documentation

Showing up to 5 results
|